Hourly Data Report for October 02, 2015

All times are specified in Local Standard Time (LST). Add 1 hour to adjust for Daylight Saving Time where and when it is observed.

EUREKA CLIMATE
NUNAVUT

79°59'21.000" N
85°56'02.000" W
10.00 m
2401199
71613
NEK

Download Data

Hourly Data (October 2015)
Hourly Data Report for October 2, 2015
Temp Definition
°C
Dew Point Temp Definition
°C
Rel Hum Definition
%
Wind Dir Definition
10's deg

Wind Spd Definition
km/h
Visibility Definition
km
Stn Press Definition
kPa
Hmdx Definition


Wind Chill Definition


Weather Definition


TIME
00:00 -1.5 -1.7 98 14 27   98.56   -8 LegendNANA
01:00 -1.6 -1.6 100 12 26   98.55   -8 LegendNANA
02:00 -1.3 -1.4 99 12 29   98.55   -8 LegendNANA
03:00 -1.3 -1.5 99 12 28   98.57   -8 LegendNANA
04:00 -1.5 -1.5 100 13 24   98.59   -8 LegendNANA
05:00 -1.4 -1.5 99 13 23   98.63   -7 LegendNANA
06:00 -1.3 -1.5 99 14 22   98.67   -7 LegendNANA
07:00 -1.2 -1.5 98 14 18   98.71   -6 LegendNANA
08:00 -1.2 -1.4 99 13 13   98.75   -5 LegendNANA
09:00 -1.3 -1.4 99 7 4   98.82   -3 LegendNANA
10:00 -4.0 -4.6 95 2 27   98.90   -11 LegendNANA
11:00 -3.1 -3.7 96 7 5   99.00   -5 LegendNANA
12:00 -3.9 -4.9 93 17 10   99.10   -8 LegendNANA
13:00 -5.1 -5.7 96 27 20   99.23   -12 LegendNANA
14:00 -6.7 -7.5 94 29 22   99.37   -14 LegendNANA
15:00 -6.8 -8.0 91 30 19   99.45   -14 LegendNANA
16:00 -7.0 -8.9 86 32 13   99.51   -13 LegendNANA
17:00 -10.0 -11.4 90 19 5   99.61   -13 LegendNANA
18:00 -12.0 -13.3 90 2 15   99.66   -19 LegendNANA
19:00 -12.0 -12.7 94 7 9   99.72   -17 LegendNANA
20:00 -9.7 -10.5 94 9 1   99.75   -10 LegendNANA
21:00 -9.8 -10.7 93 11 21   99.77   -18 LegendNANA
22:00 -8.5 -9.4 93 11 19   99.84   -16 LegendNANA
23:00 -5.1 -6.9 87 14 18   99.86   -11 LegendNANA

Notes on Data Quality.

Legend

  • E = Estimated
  • M = Missing
  • NA = Not Available
  • ‡ = Partner data that is not subject to review by the National Climate Archives
Date modified: